Home > Time Zones > World Clock > Weather > Iran > Tehran > Past weeks

Flag for Iran Weather past 2 weeks in Tehran, Iran

Now
86 °F

Passing clouds.


Feels Like: 83 °F
Forecast: 67 / 91 °F
Wind: 9 mph from South

Location: Tehran-Mehrabad

Current Time: Sep 1, 2014 at 1:16:55 PM

Latest Report: Sep 1, 2014 at 12:30 PM


Visibility: 5 mi

Pressure: 30.01 "Hg

Humidity: 20%

Dew point: 41 °F

Location of TehranLocation

Historic Weather in Tehran — Graph

°F

Tehran temperature yesterday

Maximum temperature yesterday: 91 °F (at 4:00 PM)
Minimum temperature yesterday: 73 °F (at 4:30 AM)
Average temperature yesterday: 84 °F

Past Weeks' High & Low Weather Summary

 TemperatureHumidityPressure
High100 °F (Aug 20, 4:00 PM)50% (Aug 31, 3:30 AM)30.09 "Hg (Aug 31, 3:30 AM)
Low73 °F (Aug 31, 4:30 AM)7% (Aug 18, 5:30 PM)29.86 "Hg (Aug 17, 7:00 PM)
Average87 °F17%29.99 "Hg
* Reported Aug 17 11:30 AM — Sep 1 12:00 Noon, Tehran, Weather by CustomWeather, © 2014

Note: Actual official high and low records may vary slightly from our data, if they occured in-between our weather recording intervals... More about our weather records

Advertising

Tehran weather history for previous 24 hours

 ConditionsComfort  
Time TempWeatherWind HumidityBarometerVisibility
12:00 PM
Sep 1
84 °FPassing clouds.9 mph22%30.01 "Hg5 mi
11:30 AM84 °FSunny.7 mph23%30.04 "Hg5 mi
11:00 AM84 °FSunny.9 mph23%30.04 "Hg5 mi
10:30 AM81 °FSunny.7 mph32%30.04 "Hg5 mi
10:00 AM81 °FSunny.7 mph30%30.04 "Hg5 mi
9:30 AM79 °FPleasantly warm.7 mph30%30.04 "Hg5 mi
9:00 AM77 °FPleasantly warm.5 mph32%30.04 "Hg5 mi
8:30 AM77 °FPleasantly warm.5 mph32%30.04 "Hg5 mi
8:00 AM79 °FPleasantly warm.7 mph28%30.04 "Hg5 mi
7:30 AM75 °FClear.7 mph29%30.01 "Hg10 mi
7:00 AM73 °FClear.No wind31%30.01 "Hg10 mi
6:30 AM73 °FClear.No wind31%30.01 "Hg10 mi
6:00 AM73 °FClear.No wind31%30.01 "Hg10 mi
5:30 AM73 °FClear.No wind31%29.98 "Hg10 mi
5:00 AM75 °FClear.5 mph27%29.98 "Hg10 mi
4:00 AM79 °FClear.No wind26%29.98 "Hg10 mi
3:30 AM79 °FClear.No wind26%29.98 "Hg10 mi
3:00 AM81 °FClear.7 mph23%29.98 "Hg10 mi
2:30 AM81 °FClear.7 mph23%29.98 "Hg10 mi
2:00 AM82 °FPassing clouds.7 mph23%29.98 "HgN/A
1:30 AM82 °FPassing clouds.7 mph23%29.98 "HgN/A
1:00 AM84 °FPassing clouds.5 mph22%29.98 "HgN/A
12:30 AM81 °FPassing clouds.5 mph26%29.95 "HgN/A
12:00 AM82 °FPassing clouds.5 mph23%29.95 "HgN/A
11:30 PM
Aug 31
82 °FPassing clouds.5 mph23%29.95 "HgN/A
11:00 PM81 °FPassing clouds.No wind26%29.95 "HgN/A
10:30 PM86 °FPassing clouds.5 mph19%29.95 "HgN/A
10:00 PM86 °FPassing clouds.No wind19%29.98 "HgN/A
9:30 PM86 °FPassing clouds.5 mph18%29.95 "HgN/A
9:00 PM88 °FPassing clouds.5 mph17%29.95 "HgN/A
8:30 PM88 °FPassing clouds.5 mph17%29.95 "HgN/A
8:00 PM88 °FPassing clouds.5 mph16%29.95 "HgN/A
7:30 PM90 °FPassing clouds.7 mph14%29.92 "HgN/A
7:00 PM90 °FPassing clouds.9 mph14%29.92 "HgN/A
6:30 PM90 °FPassing clouds.7 mph15%29.95 "HgN/A
6:00 PM91 °FScattered clouds.9 mph14%29.95 "HgN/A
5:30 PM91 °FScattered clouds.12 mph14%29.95 "HgN/A
5:00 PM91 °FPassing clouds.7 mph14%29.95 "HgN/A
4:30 PM90 °FPassing clouds.5 mph14%29.95 "HgN/A
4:00 PM91 °FPassing clouds.9 mph14%29.95 "HgN/A
3:30 PM90 °FPassing clouds.7 mph14%29.95 "HgN/A
3:00 PM90 °FPassing clouds.9 mph14%29.98 "HgN/A
2:30 PM90 °FPassing clouds.7 mph15%29.98 "HgN/A
2:00 PM88 °FPassing clouds.9 mph16%30.01 "HgN/A
1:30 PM88 °FPassing clouds.5 mph17%30.01 "HgN/A
1:00 PM86 °FPassing clouds.9 mph18%30.01 "HgN/A
Weather by CustomWeather, © 2014

See weather overviewHow to use our weather pages